Location: Casa Rossa
(45.2389°N, 12.2056°E)
Time: 22:35:11
(UTC+00:00)

Cosmos 1703 Rocket - Pass Details

Date: 14 July 2020
Orbit: 605 x 634 km, 82.5° (Epoch: 14 August)

Event Time Altitude Azimuth Distance (km) Brightness Sun altitude
Rises 00:30:20 0° 350° (N) 2,933 8.1 -21.1°
Reaches altitude 10° 00:32:35 10° 350° (N) 2,017 7.1 -21.0°
Maximum altitude 00:37:04 86° 264° (W) 633 3.5 -20.7°
Enters shadow 00:38:06 53° 178° (S) 770 3.6 -20.6°
